Theta_e
321 322 321 322 321 321 323 322 329 332 329 327 327 328 323 324 327 325 328 329 331 331 332 332 331 334 335 337 336 336 335 338 339 338 339 336 335 334 334 334 336 333 316 308 318 327 329 331 335 336 336 335 335 334 332 328 321 314 314 316 317 318 318 318 318 315 313 313 317 319 317 314 313 315 317 322 324 320 321 321 313 311 316 320 322 320 315 312 312 312 312 313 313 313 313 313 313
321 322 321 322 322 322 324 322 328 332 329 325 323 325 322 327 329 326 331 331 331 331 331 332 332 333 334 336 335 337 337 337 338 337 336 335 336 335 334 334 336 328 312 309 317 325 327 330 335 336 336 336 335 333 331 326 317 312 312 314 315 316 315 314 314 313 312 311 312 313 312 312 312 315 320 323 326 326 326 323 314 310 312 316 317 316 315 313 312 312 313 313 313 313 313 313 313
321 322 322 321 322 322 324 325 326 327 327 323 320 322 326 331 332 329 331 330 331 331 330 331 333 334 335 338 337 339 338 336 336 336 335 336 336 335 335 334 331 319 309 310 315 323 326 330 336 335 336 335 335 332 329 324 314 310 311 313 315 317 316 313 312 311 311 311 311 311 311 312 312 316 322 325 328 327 322 317 316 315 311 313 314 314 314 313 312 313 313 313 313 313 313 313 313
322 321 322 322 323 323 327 326 326 327 324 324 322 323 330 333 332 330 329 330 331 330 331 332 333 334 337 339 338 338 337 336 336 335 334 335 335 334 333 328 321 311 309 310 313 322 326 332 336 336 336 335 334 332 328 321 312 310 310 311 315 318 317 314 312 312 311 311 311 312 312 313 316 319 322 326 326 321 317 316 320 321 314 312 314 312 312 312 313 313 313 313 313 313 313 313 313
322 321 322 322 324 325 325 324 330 329 320 326 325 324 332 332 331 329 329 331 330 331 331 332 333 333 337 337 337 337 336 335 334 334 334 335 333 333 331 323 319 314 311 309 313 320 325 333 336 336 336 335 334 331 327 317 311 310 310 310 313 314 314 313 312 312 312 312 312 314 316 315 318 321 321 323 323 323 321 317 319 320 313 312 313 312 312 312 313 313 313 313 313 313 313 313 313
321 322 322 322 324 323 323 322 327 325 318 325 325 326 332 329 330 329 328 330 329 331 330 332 333 334 337 337 337 337 337 335 334 333 333 334 333 333 330 323 323 322 315 310 314 319 325 334 336 336 336 335 334 330 325 315 311 310 309 310 310 311 311 311 311 311 313 313 313 316 319 316 316 321 325 327 328 329 324 316 316 315 312 313 313 313 313 313 313 313 313 313 312 313 312 313 313
321 322 322 323 325 322 324 324 325 325 319 321 324 328 331 326 329 328 329 330 328 329 330 333 333 335 336 336 337 337 337 336 335 334 332 333 332 333 329 324 324 323 318 312 314 318 326 334 335 336 336 334 333 329 323 314 311 309 309 310 310 311 310 312 312 312 314 314 312 315 318 317 317 320 324 328 330 328 322 318 316 312 312 313 313 313 313 313 313 312 313 312 312 312 313 313 313
321 321 321 324 329 327 325 325 328 328 320 318 322 327 328 326 327 327 328 329 328 327 329 332 330 335 336 335 337 337 337 336 335 334 333 331 331 332 327 324 324 322 319 313 313 320 329 335 335 336 335 333 332 327 321 314 311 309 309 309 310 311 311 316 315 314 317 315 313 315 317 318 321 321 321 324 325 324 322 321 315 312 313 313 313 313 313 313 312 313 313 312 313 313 314 314 314
321 322 322 324 330 331 329 326 325 324 321 319 321 325 327 327 326 325 325 325 327 327 328 329 330 337 337 336 337 336 336 336 336 334 334 332 332 331 325 326 328 325 321 313 314 324 333 336 335 335 334 333 331 325 319 314 310 308 309 309 310 311 313 317 315 315 317 315 315 316 317 320 323 323 322 323 324 324 323 320 314 313 314 313 313 313 313 312 313 313 313 313 314 314 314 314 314
321 322 322 328 331 329 331 329 323 321 321 320 320 324 325 326 325 324 323 323 326 328 329 329 331 337 336 336 336 337 336 336 336 335 335 333 331 328 326 330 331 328 321 314 320 329 334 335 335 334 333 333 330 324 319 314 310 308 309 308 310 310 312 314 314 315 314 313 314 315 316 319 321 321 322 322 323 322 321 316 313 314 314 314 313 313 313 312 313 313 313 314 314 314 314 314 314
322 322 321 327 329 327 330 329 323 321 320 320 320 322 324 326 325 322 322 324 327 329 329 327 331 336 336 336 336 337 336 336 336 335 334 331 329 326 327 331 332 329 323 320 328 332 334 334 335 333 332 332 328 323 318 313 310 308 308 308 309 311 311 311 311 312 311 312 312 314 315 317 319 320 321 321 319 318 316 314 313 314 314 314 313 313 313 313 313 313 314 314 314 314 314 314 314
323 325 324 325 329 329 329 325 321 322 322 322 321 322 323 325 325 321 322 325 328 329 326 327 329 335 337 336 336 336 336 336 336 334 332 330 329 327 327 329 330 329 326 328 333 333 332 333 333 332 331 330 325 320 315 312 310 308 308 308 309 310 311 310 310 310 310 311 312 312 313 315 316 317 319 318 316 315 314 313 313 314 314 313 313 313 313 313 313 314 314 314 314 314 314 315 314
323 326 326 327 333 331 328 323 321 327 327 324 320 322 324 324 325 321 321 324 327 328 326 329 327 330 337 336 336 336 336 335 335 333 331 330 329 328 327 327 328 328 329 332 333 332 332 332 332 331 329 327 322 316 313 311 310 308 308 308 309 309 310 310 309 309 309 310 312 313 312 313 314 315 316 315 314 313 313 313 314 314 314 313 313 313 313 313 314 314 314 314 314 314 315 315 315
322 324 323 329 335 330 329 324 323 330 326 323 321 321 324 322 323 321 322 327 328 326 325 327 325 330 337 336 336 336 335 335 334 332 331 331 330 328 327 327 328 328 330 332 332 331 330 331 331 329 328 323 317 313 311 311 309 308 308 309 309 309 310 310 309 309 309 310 312 313 313 313 313 314 315 314 313 313 313 313 314 314 314 313 313 313 313 314 314 314 314 314 314 315 315 315 315
321 322 323 328 332 330 333 327 323 329 323 322 323 322 324 322 322 323 324 330 329 325 323 323 322 330 337 336 336 336 336 335 334 332 331 332 330 328 326 327 327 328 332 332 331 331 330 330 329 327 325 320 315 312 311 310 309 308 308 309 309 309 309 310 310 309 309 310 311 312 313 313 313 314 314 313 313 313 313 314 314 314 313 313 313 313 314 314 314 314 314 314 315 314 315 315 315
319 322 325 327 330 330 332 326 323 327 321 320 323 322 324 321 322 324 324 326 326 324 324 323 322 331 336 336 336 335 335 335 334 332 331 332 330 326 325 327 327 327 331 331 330 331 329 328 326 323 322 318 314 312 310 309 308 308 309 309 309 309 309 310 310 309 309 309 311 312 313 313 314 314 314 314 313 313 313 313 313 313 313 313 313 314 314 315 315 314 315 315 315 315 315 315 316
318 323 327 327 329 327 325 325 324 324 321 320 322 323 324 322 321 322 323 323 323 325 326 325 326 331 331 331 334 334 335 335 334 333 331 331 330 324 321 326 328 326 329 328 328 331 329 326 323 320 318 315 313 311 310 309 308 309 309 309 309 309 309 310 309 309 309 309 311 313 313 314 314 314 314 313 313 313 313 313 313 313 313 314 314 315 315 315 315 315 315 315 315 316 316 316 317
321 329 329 327 328 323 320 321 321 321 321 320 321 322 322 323 322 321 322 322 323 326 327 327 327 329 328 330 334 334 334 334 334 333 331 330 328 322 318 322 325 324 328 328 326 330 329 326 323 318 315 312 311 310 310 309 308 309 309 309 309 309 309 309 310 309 309 310 312 313 313 314 314 314 314 314 313 313 313 313 313 314 314 314 315 315 315 315 315 315 315 316 316 316 316 316 317
323 329 328 329 327 319 317 317 316 318 319 319 320 321 322 322 321 321 321 322 323 326 328 328 330 333 333 334 335 333 333 334 334 333 330 329 327 322 317 318 319 319 326 328 326 329 329 326 323 318 314 311 311 310 309 309 308 309 309 309 310 309 309 309 309 309 309 310 312 313 314 314 315 315 314 314 313 313 313 313 313 314 314 315 315 316 316 315 315 316 316 316 316 317 317 317 317
322 323 328 330 322 316 316 316 316 317 318 318 318 319 320 321 321 321 321 321 321 324 327 328 332 335 335 335 335 333 333 333 333 333 330 328 325 322 318 316 316 314 320 327 327 328 329 325 320 317 314 310 312 312 310 309 308 309 309 309 310 309 309 309 309 308 309 310 312 313 313 314 315 315 315 314 314 314 314 314 314 314 315 316 316 316 316 316 316 316 317 317 317 317 317 318 317
323 322 328 326 319 317 316 316 317 316 317 317 317 318 318 318 320 321 320 321 321 321 324 326 329 332 333 334 334 332 332 332 333 331 329 327 325 322 319 316 316 313 315 323 325 326 329 326 319 315 313 309 311 313 311 310 308 308 309 309 310 309 309 309 308 308 309 310 311 313 313 313 314 315 315 314 314 314 314 314 314 315 316 316 316 316 316 316 317 317 318 317 318 318 317 318 318
324 323 324 321 317 317 315 315 317 316 317 317 316 317 317 317 318 319 319 321 323 320 321 323 324 326 329 331 332 332 331 330 331 330 328 326 325 323 321 318 316 315 314 317 319 320 322 322 320 316 314 311 309 310 310 310 309 308 309 309 310 309 309 309 309 308 308 310 311 312 312 312 313 314 314 314 314 314 314 315 315 316 316 316 316 316 316 317 317 317 317 317 318 318 318 318 319
326 325 323 320 317 315 315 316 316 316 317 316 316 317 317 317 317 317 317 319 321 319 319 321 323 324 325 326 328 329 328 327 326 327 328 327 325 324 323 320 318 317 318 317 315 315 315 315 315 314 314 313 310 309 309 309 309 309 309 309 310 309 309 309 309 309 308 309 310 311 312 312 313 314 314 314 314 315 315 315 316 316 317 317 317 317 317 317 318 318 317 318 318 319 319 319 319
327 326 323 322 318 315 315 316 316 317 316 317 318 319 318 317 317 317 317 318 318 319 319 320 323 325 325 325 325 324 323 323 322 323 328 328 326 325 324 322 320 319 320 319 316 315 314 312 311 311 311 311 310 309 308 309 309 309 309 309 310 309 309 309 309 309 309 309 309 311 312 312 313 315 315 314 315 316 316 316 316 317 317 317 317 317 318 318 318 318 318 319 319 319 320 319 320
325 327 325 323 319 315 316 317 318 319 318 319 321 320 320 320 318 317 317 318 318 318 319 319 322 325 326 326 324 323 322 322 322 323 326 328 328 327 326 325 324 324 323 321 318 317 316 314 312 311 310 310 310 309 309 309 309 309 310 309 309 310 309 310 310 309 309 309 309 311 312 313 314 315 315 315 315 316 316 316 316 317 317 317 317 318 318 318 318 319 319 319 319 320 319 319 321
324 326 326 321 318 316 316 317 318 320 319 320 321 320 322 321 318 317 318 318 318 317 318 320 322 325 327 325 323 323 323 322 323 323 325 327 329 329 327 326 326 326 326 324 321 318 318 318 316 314 313 312 311 311 310 310 309 309 309 309 309 310 310 310 310 310 309 309 309 311 313 314 314 315 315 316 315 316 316 316 316 316 317 317 318 318 318 318 318 319 319 319 320 319 319 319 322
324 326 324 320 319 318 318 318 318 320 318 319 320 320 322 321 318 320 320 317 318 317 318 322 323 325 326 325 323 321 321 321 320 322 326 328 328 329 329 327 327 327 326 326 324 321 319 319 319 317 315 314 313 313 312 311 310 309 309 309 309 310 310 310 310 310 310 309 310 312 314 314 315 315 315 316 316 316 316 317 317 317 318 318 318 319 319 318 318 319 319 320 320 320 320 321 322
325 325 324 321 321 322 320 319 320 320 319 319 319 319 321 320 318 321 321 318 318 317 319 323 324 325 325 324 323 321 319 318 320 322 324 325 323 324 327 327 327 327 326 325 324 323 321 320 320 319 317 316 315 314 314 313 312 311 310 309 310 310 311 311 311 311 311 311 311 312 314 315 315 316 316 316 316 317 317 318 318 318 319 319 319 320 320 319 319 319 319 320 320 320 320 320 319
325 325 324 323 322 325 323 321 322 320 322 322 320 322 323 320 317 320 323 320 318 317 319 321 323 325 326 325 324 323 320 319 320 320 319 318 318 319 322 325 326 326 326 325 325 325 324 323 321 320 319 318 317 316 315 314 313 312 311 310 310 311 311 312 312 312 312 312 313 314 315 315 316 317 317 317 318 318 318 319 319 319 319 320 320 319 319 319 319 319 319 319 319 319 318 318 318
324 323 325 328 326 327 325 323 324 321 323 323 322 328 329 324 320 321 325 322 319 318 319 319 321 324 325 326 326 325 323 322 320 318 316 316 317 317 317 320 324 325 325 325 325 324 324 324 323 322 321 320 319 317 316 315 315 314 312 311 311 312 313 313 314 314 314 314 315 316 316 317 317 318 318 318 319 319 319 319 319 319 319 320 319 319 319 318 318 318 319 319 318 317 316 317 317
325 323 327 331 330 331 327 323 324 323 323 322 324 328 329 328 326 324 324 323 320 318 319 319 319 321 323 325 327 327 326 324 321 317 317 316 317 317 317 318 321 324 326 325 323 322 322 323 323 323 322 321 320 319 318 317 316 315 314 313 312 313 314 314 315 316 316 316 317 318 318 319 319 319 320 319 319 319 319 319 319 319 319 319 319 319 319 318 318 318 318 318 317 315 316 317 316
326 328 331 331 331 334 327 321 324 324 320 319 324 328 327 327 326 325 324 323 321 319 318 319 319 320 321 322 325 326 327 326 324 321 319 319 319 318 318 318 318 321 323 324 322 322 321 321 322 323 323 322 321 319 319 318 317 316 315 314 314 314 314 315 316 317 317 318 319 319 319 319 320 320 320 319 319 319 319 319 319 319 319 320 319 319 319 319 318 318 318 316 315 315 316 317 317
327 331 334 332 331 331 326 321 322 321 319 318 322 327 327 325 322 322 322 321 320 318 317 318 319 320 320 321 322 324 326 327 327 324 322 321 321 320 319 318 318 318 320 321 321 321 320 320 320 322 322 322 321 320 319 318 318 317 317 316 315 315 315 316 317 318 318 319 319 319 319 319 320 320 319 319 319 319 319 319 319 320 320 321 321 320 320 319 319 318 318 317 316 316 316 317 317
329 331 333 332 330 328 326 324 320 318 319 320 321 322 324 324 320 318 318 319 318 317 317 318 319 321 320 321 322 322 324 326 326 323 321 321 321 321 320 319 319 318 318 320 320 319 319 319 319 319 321 321 321 321 320 319 319 319 318 318 316 316 316 316 317 318 318 319 319 319 319 319 319 319 319 319 319 319 319 320 320 321 321 322 322 321 320 320 320 319 319 318 317 317 318 318 318
330 330 331 332 331 328 326 325 321 318 319 321 321 320 321 321 320 318 317 317 317 317 318 318 319 320 321 321 321 323 324 324 321 318 318 318 319 320 321 321 320 319 319 320 320 320 320 319 319 318 319 320 321 321 321 320 320 320 319 319 319 318 317 317 317 317 318 318 318 318 318 318 319 319 319 320 320 320 320 320 321 321 322 322 322 322 321 321 321 321 320 319 318 317 318 318 319
329 329 329 332 333 330 326 324 321 318 318 319 320 319 319 320 320 319 318 317 316 317 317 317 318 318 320 321 321 322 323 321 316 316 318 318 319 319 320 321 321 320 319 320 320 321 321 320 320 319 318 319 320 322 321 321 321 321 320 320 320 319 319 318 318 317 317 317 317 317 317 317 318 318 319 320 320 320 321 321 321 321 322 322 323 322 322 322 322 321 321 320 319 318 318 319 320
328 328 329 330 331 330 327 323 318 317 319 319 318 319 318 319 319 317 318 318 316 315 316 316 317 317 318 320 320 321 321 319 316 317 319 319 319 318 319 321 322 322 320 320 321 321 321 320 319 318 318 318 319 320 321 321 321 320 320 320 319 319 319 319 318 317 317 317 317 317 317 317 317 317 318 319 319 320 321 321 321 321 322 322 322 322 322 323 323 322 322 321 320 319 319 319 321
327 329 329 328 330 329 324 321 318 316 319 322 320 319 319 319 319 318 317 318 316 315 315 316 317 317 318 319 320 321 320 320 319 319 320 320 320 319 320 321 321 321 319 319 319 318 319 320 318 317 318 318 317 316 318 319 319 319 319 319 318 318 318 318 317 316 316 316 316 316 317 316 316 317 317 317 318 319 320 321 321 321 322 322 322 322 323 323 323 323 322 321 320 320 319 320 321
328 331 331 331 331 326 319 317 317 316 320 324 322 320 320 319 320 318 316 317 317 318 317 317 318 317 317 318 319 321 321 321 320 319 320 319 319 319 319 319 318 317 317 316 316 316 317 318 316 316 316 316 315 315 315 315 316 317 319 319 319 319 319 318 318 318 318 317 317 317 317 317 317 317 317 317 318 318 319 320 320 321 321 322 322 323 323 323 324 324 323 322 321 321 320 321 322
330 332 332 332 331 328 326 319 315 316 319 321 320 319 318 317 319 318 316 318 318 319 319 318 319 318 318 318 318 320 320 320 319 318 319 318 317 318 318 317 316 316 316 315 315 315 316 316 315 314 314 314 314 314 314 313 314 316 317 319 320 320 320 320 320 320 320 320 320 320 319 319 319 319 318 318 318 318 319 319 320 321 322 322 323 323 323 323 324 324 323 323 322 321 321 321 321
330 331 331 334 332 330 329 321 315 317 320 319 317 320 324 321 320 319 317 317 317 318 319 318 318 319 318 318 317 318 318 318 318 317 317 317 317 317 317 316 315 315 315 314 314 314 315 314 314 313 313 314 313 313 313 314 315 315 316 317 319 321 321 321 321 321 320 320 320 320 320 320 320 320 319 319 319 319 320 320 321 322 322 323 324 324 324 324 324 324 324 324 323 322 322 321 322
330 331 331 334 333 327 322 321 320 325 329 324 317 326 337 331 324 322 321 319 318 316 316 317 318 318 317 317 317 317 317 317 317 317 317 317 316 316 316 316 316 315 314 313 313 314 314 314 314 314 314 314 314 314 314 314 315 315 315 315 316 317 318 318 318 317 317 317 318 318 319 320 320 320 320 320 319 320 320 321 322 323 323 323 324 324 325 325 324 324 324 325 324 324 323 323 323
331 333 333 333 332 326 321 323 327 331 333 325 317 326 335 330 324 324 324 323 322 319 316 316 318 318 317 317 317 317 317 317 317 317 317 317 317 317 316 316 316 315 315 314 313 314 314 314 314 314 314 314 314 314 314 314 315 314 314 314 314 314 314 314 314 314 315 316 316 317 318 320 321 321 321 321 320 320 321 321 322 323 323 324 325 325 325 325 325 325 325 325 325 324 324 324 323
333 335 334 333 332 329 324 326 331 333 331 325 320 322 325 325 323 322 321 322 323 321 319 317 317 318 319 318 317 317 317 317 317 317 317 318 317 317 317 317 316 316 316 315 314 314 314 313 313 313 314 314 314 314 314 314 314 314 314 314 314 314 314 313 314 314 315 315 316 317 317 318 320 321 321 321 321 322 322 322 322 323 324 324 325 325 325 325 325 325 325 325 326 325 325 324 323
333 332 332 332 332 331 328 329 331 329 330 330 324 320 325 329 329 325 322 322 322 322 321 318 317 318 319 319 319 318 317 317 317 317 317 317 318 317 317 317 317 317 316 316 316 315 314 314 314 314 314 314 314 314 314 314 314 314 314 314 314 314 314 314 314 315 315 315 315 315 315 315 316 318 318 319 320 320 321 321 322 323 323 324 324 324 324 325 325 325 325 325 326 326 325 325 324
326 326 328 329 330 330 330 332 333 327 328 331 326 323 328 332 332 328 323 324 323 322 321 318 317 318 318 319 320 319 318 317 317 318 318 318 318 318 318 318 317 317 317 317 316 316 315 314 314 314 315 315 315 315 315 315 315 315 314 314 313 313 314 314 314 314 314 315 314 314 314 314 314 314 315 316 316 317 318 319 320 321 322 323 324 324 325 325 325 326 326 326 326 326 326 325 325
323 326 327 327 329 330 330 332 333 330 328 330 328 326 328 331 333 329 323 324 323 321 321 319 317 318 318 319 320 320 319 318 318 317 317 318 318 318 318 317 318 318 317 317 317 316 316 315 315 315 315 316 315 315 315 315 315 315 315 314 314 313 313 314 314 314 313 314 314 313 313 313 313 314 314 315 315 315 316 317 318 319 321 323 324 324 325 326 326 326 326 326 326 327 327 326 325
326 331 330 329 330 331 331 328 328 331 331 329 327 325 324 329 335 331 324 324 323 321 322 321 318 317 318 319 320 320 320 320 320 319 318 318 318 318 317 317 317 317 317 317 317 317 316 316 316 316 316 315 315 315 315 315 315 315 315 315 315 314 314 314 313 313 313 314 314 314 314 315 315 314 315 315 315 315 316 317 317 318 320 322 323 323 324 325 326 326 326 327 327 326 326 326 325
327 329 329 331 330 330 332 328 326 330 329 325 323 323 323 325 327 326 323 322 322 320 319 319 318 317 318 319 319 320 320 320 320 320 320 319 318 318 318 317 317 316 317 317 317 317 317 316 316 316 316 316 316 315 315 315 315 315 315 315 315 315 315 315 315 314 315 315 316 316 316 316 316 315 316 315 315 316 316 317 317 317 318 319 320 321 323 325 326 326 326 326 327 327 326 325 324
325 325 328 332 329 330 333 329 327 329 326 321 320 322 325 326 325 324 322 320 319 318 317 318 318 318 319 318 319 320 319 319 319 319 319 319 318 319 318 318 317 316 316 316 317 317 317 317 316 316 316 316 315 315 315 315 314 314 315 315 315 316 316 316 316 316 317 318 319 319 318 318 318 317 317 316 316 317 317 318 318 318 319 319 320 321 322 324 326 327 327 327 326 326 325 324 323
324 325 328 330 329 331 332 329 329 329 323 317 318 323 329 330 329 325 319 316 315 315 318 319 318 317 318 317 318 319 319 319 318 318 318 318 318 318 318 318 317 317 317 316 317 316 316 316 316 316 315 315 314 314 314 314 314 313 314 315 315 316 317 318 318 319 320 320 321 321 321 321 321 320 319 318 318 319 319 319 320 320 321 321 321 321 322 324 325 326 327 327 327 327 325 324 323
325 327 329 329 330 333 331 328 329 328 323 319 319 325 329 328 325 320 315 316 316 314 315 318 318 317 316 317 317 317 318 318 318 317 317 317 317 317 317 317 316 316 316 316 315 315 315 315 315 314 314 314 313 313 313 313 313 312 313 314 315 316 318 318 319 320 320 321 322 322 322 322 322 321 320 317 318 319 320 321 322 322 323 323 322 321 321 322 324 325 326 327 327 326 325 323 324
326 327 327 327 329 333 331 327 324 324 326 324 321 324 326 324 323 321 320 322 319 315 314 314 316 317 315 315 316 316 317 317 317 317 315 315 315 314 314 314 314 314 313 314 314 313 314 313 313 313 313 313 313 313 313 312 312 312 312 312 314 315 316 316 317 318 319 320 320 320 320 320 320 319 318 318 319 321 321 322 323 324 325 324 323 322 322 322 322 324 325 327 327 326 325 325 327
326 326 325 324 326 330 330 328 324 324 328 326 321 322 325 324 327 329 325 323 323 320 316 313 313 315 315 315 317 317 317 316 316 316 315 315 314 314 314 313 313 314 313 314 314 313 313 313 313 313 313 313 313 312 312 312 312 312 311 311 312 313 313 314 314 315 316 317 317 317 318 318 318 319 319 321 322 323 324 324 325 325 325 324 323 322 322 323 325 325 324 325 327 326 325 327 327
323 324 322 325 329 328 328 329 328 327 327 327 323 322 324 324 326 328 323 322 327 324 320 317 314 312 314 315 316 316 315 314 314 315 315 316 315 315 314 314 313 314 314 314 314 314 314 314 313 313 312 312 312 311 311 311 311 312 311 311 311 311 311 312 312 313 314 315 315 316 317 318 319 320 321 322 323 324 325 325 325 325 325 324 323 323 322 322 325 327 326 326 326 326 326 327 325
320 322 321 326 328 326 327 329 329 329 327 328 326 322 326 327 323 324 322 321 324 322 321 320 314 312 314 315 314 313 313 312 312 314 314 314 315 314 313 313 313 312 312 313 313 313 313 313 313 312 311 311 311 311 311 311 312 312 312 311 311 311 311 311 311 311 312 313 314 316 317 317 318 320 322 323 323 324 325 325 325 325 324 323 323 323 323 322 322 324 326 327 326 327 326 326 326
320 323 323 325 323 323 328 327 328 330 328 329 327 324 332 334 323 320 321 320 321 321 323 319 312 313 316 314 314 313 312 312 313 313 314 313 313 313 312 312 312 311 311 312 312 312 311 312 312 312 312 311 311 311 312 312 312 312 312 312 312 311 311 311 311 311 311 312 313 313 314 314 316 318 321 322 323 323 324 324 323 323 322 322 322 322 322 323 324 325 325 325 325 325 323 324 326
321 323 324 324 322 322 327 326 326 327 327 331 329 326 335 337 324 320 320 320 320 318 318 316 313 314 316 315 315 314 313 313 313 314 313 313 312 312 312 312 311 311 311 312 312 311 311 311 311 311 312 311 312 312 312 312 311 311 311 311 311 311 311 311 311 311 311 311 311 312 312 312 313 316 318 320 321 322 323 323 323 323 322 322 322 321 321 323 325 326 326 326 326 325 325 326 324
Wind_Speed
5 6 9 10 12 9 6 6 2 1 2 1 2 1 0 1 3 4 4 5 3 6 13 13 15 14 9 12 15 15 12 4 2 2 5 12 15 13 11 9 8 6 7 14 15 13 12 12 12 10 9 8 7 7 8 7 7 7 8 8 8 8 8 7 7 6 6 6 4 3 3 4 6 6 9 12 12 12 13 14 14 13 14 15 15 16 16 16 16 17 17 17 17 18 18 18 18
5 6 9 11 11 8 5 5 2 2 4 2 2 1 1 3 5 5 5 5 4 6 12 15 18 17 17 18 14 12 13 9 8 13 17 18 18 13 10 9 8 7 9 14 16 14 12 12 12 10 9 8 7 7 7 7 7 8 9 9 9 8 8 8 8 7 6 6 5 4 3 4 5 7 11 12 12 12 13 12 12 13 13 14 15 15 15 16 16 17 17 17 18 17 18 18 17
5 7 8 10 10 8 6 4 2 1 4 2 3 1 4 6 5 5 7 8 10 11 11 11 15 15 15 14 10 8 6 8 15 22 21 17 18 15 11 9 8 9 11 14 17 15 12 13 12 10 10 8 7 8 7 7 7 9 10 9 9 9 9 9 9 7 7 6 5 4 4 5 5 9 13 13 12 12 11 11 12 13 13 14 15 15 15 16 16 17 17 17 17 17 17 17 16
4 7 9 11 9 6 3 3 2 3 3 3 1 2 4 7 6 5 10 12 11 10 9 7 8 11 15 12 10 10 7 8 14 21 20 16 15 14 12 12 11 11 12 14 16 15 13 13 12 11 9 8 8 7 6 6 8 10 10 9 9 10 10 10 9 8 7 6 5 5 5 6 7 11 13 13 12 11 10 11 13 13 14 14 14 15 15 16 16 16 16 16 16 16 16 16 15
3 6 9 10 7 3 1 2 0 4 1 3 4 3 5 7 6 6 10 11 9 9 8 6 5 8 14 11 6 8 9 11 15 18 19 15 14 14 13 12 11 11 13 14 16 16 14 13 13 11 10 9 8 7 6 6 8 10 10 9 9 9 9 9 9 8 7 6 6 6 7 7 9 12 13 13 13 11 10 11 13 13 14 14 14 15 15 15 15 16 16 15 15 15 15 15 15
4 5 8 9 5 3 1 2 2 2 2 3 6 4 6 7 9 10 11 10 8 8 8 7 6 9 12 12 11 9 8 11 16 18 19 18 15 13 12 11 10 10 13 15 17 17 15 14 13 11 10 9 7 7 7 7 8 10 9 8 8 8 8 8 8 7 7 7 7 8 8 9 10 13 14 14 14 12 11 11 12 13 14 14 14 14 14 15 15 15 15 15 14 14 14 14 14
4 4 7 8 3 2 1 3 1 1 2 2 7 6 7 10 14 13 9 7 5 6 9 9 10 11 8 8 11 10 5 9 14 17 17 18 16 13 11 13 12 10 12 16 18 18 16 14 13 12 10 9 7 7 7 7 8 9 9 8 7 8 8 7 8 7 7 7 8 9 9 10 10 12 14 14 13 12 11 11 12 13 13 13 14 14 14 14 14 14 14 14 14 14 14 14 13
3 5 6 5 2 3 2 2 3 3 1 3 7 8 12 15 15 10 5 4 3 4 7 7 10 9 4 7 8 8 8 10 12 15 14 15 16 13 12 15 14 11 12 17 19 18 16 15 14 12 11 9 7 7 7 7 8 9 8 7 7 8 8 8 8 7 7 8 9 10 10 11 11 12 14 13 12 12 11 11 13 13 13 13 13 13 13 13 13 13 13 13 13 13 13 13 13
2 5 3 2 1 3 2 0 2 2 1 2 6 11 17 18 14 10 5 4 6 6 7 5 7 7 6 13 13 8 11 12 13 14 14 14 15 14 14 16 14 12 13 18 20 18 16 15 15 14 12 9 8 7 7 7 8 9 8 7 7 8 8 8 8 8 8 9 10 10 11 11 11 12 13 13 12 11 11 11 13 13 12 12 12 13 12 12 13 12 13 13 12 12 12 12 13
1 3 1 1 1 3 5 3 2 1 1 3 7 11 16 17 14 12 8 6 8 8 7 6 8 12 12 14 12 10 12 13 14 16 14 15 15 15 17 16 13 11 14 20 20 18 17 16 15 14 12 9 8 8 7 7 8 8 8 7 7 7 7 8 8 8 8 8 10 11 11 11 10 11 12 12 12 11 11 12 12 12 12 11 11 12 11 12 12 12 11 11 12 11 11 12 13
1 2 1 2 2 2 4 2 3 2 2 3 6 9 10 13 13 11 11 8 9 9 7 6 10 18 15 10 10 11 11 11 13 16 16 16 16 17 17 16 13 11 15 21 19 18 17 16 15 13 12 11 10 9 8 8 8 8 8 8 7 7 6 7 8 8 8 8 9 10 11 11 9 11 11 11 11 11 11 11 11 12 11 11 11 11 11 11 10 10 10 10 10 10 11 11 12
1 2 1 2 1 2 3 3 4 3 3 3 3 6 7 9 10 9 11 9 10 9 6 5 7 15 10 6 12 12 11 10 13 16 18 19 18 17 18 16 14 12 15 20 19 17 16 15 15 13 13 12 11 10 9 9 8 8 8 8 7 7 6 7 8 7 7 7 8 9 10 10 9 10 10 9 11 11 11 11 10 11 11 10 10 10 10 10 9 9 9 9 9 9 10 11 12
1 2 3 1 3 3 2 2 3 3 3 2 1 6 7 6 5 8 11 9 10 8 5 5 4 8 7 7 14 13 12 14 14 18 20 20 20 18 18 16 14 12 15 20 17 16 15 14 14 13 12 12 11 10 10 10 9 9 8 8 7 6 6 6 8 7 7 7 7 8 9 10 9 9 8 8 10 10 10 10 10 10 10 9 10 9 9 9 8 7 7 8 8 9 9 10 11
2 2 2 2 1 2 2 2 2 4 1 2 2 5 6 5 6 9 13 7 6 9 6 4 3 5 8 10 13 16 17 18 17 19 21 19 20 20 18 17 13 13 15 18 16 14 15 14 13 13 12 11 11 10 10 10 10 9 8 7 7 6 6 6 8 8 7 7 8 9 9 10 10 10 9 9 9 10 9 9 9 9 9 9 9 8 8 7 6 6 6 7 7 8 8 9 9
2 3 1 1 2 3 1 2 3 5 1 2 2 4 5 7 9 11 11 7 6 10 7 4 4 3 7 9 11 19 22 21 19 20 21 19 19 19 19 17 13 14 16 16 16 15 15 14 14 13 12 11 11 10 9 10 9 9 8 7 6 6 6 7 8 8 8 8 8 9 9 10 9 9 9 9 10 10 9 9 9 9 9 9 8 7 7 6 6 5 5 6 6 7 7 8 8
1 3 2 0 2 2 2 1 3 4 1 3 3 4 5 6 8 10 9 8 9 8 4 3 4 4 8 10 10 20 23 22 21 21 22 19 19 21 21 17 14 16 16 16 16 16 15 14 15 14 13 13 11 10 9 9 9 8 7 7 6 6 7 7 9 9 8 8 8 9 9 9 9 9 9 9 9 9 9 9 9 8 9 8 7 6 5 5 4 4 4 4 5 6 6 7 8
1 2 2 2 2 1 2 0 3 4 2 2 4 4 4 3 5 9 7 8 10 7 5 5 4 5 6 5 8 18 22 23 22 22 24 20 20 23 22 20 16 16 16 16 17 18 16 15 15 15 15 14 12 11 10 10 10 9 8 7 6 6 7 7 9 9 8 9 9 9 9 9 9 9 8 8 9 9 9 9 8 8 8 7 6 5 4 4 3 3 3 4 4 5 5 6 6
1 2 2 2 2 1 1 1 2 6 4 3 5 4 4 4 4 8 6 7 10 8 7 7 5 5 4 6 11 17 20 22 23 22 26 24 21 24 24 22 18 17 17 16 17 19 17 16 16 15 15 14 13 12 11 11 10 9 8 7 6 6 7 8 9 9 9 9 10 10 10 10 9 8 8 8 8 8 8 8 8 8 7 6 5 4 3 2 2 2 2 3 4 5 5 4 5
1 2 2 2 2 1 2 3 3 3 8 8 7 4 5 6 6 7 4 5 10 8 7 8 10 11 11 13 16 17 18 20 21 21 25 26 23 24 25 23 20 18 18 17 18 19 19 18 17 16 16 15 14 13 12 12 11 10 9 8 7 7 8 9 10 10 10 10 10 10 10 10 9 9 9 8 8 8 8 8 8 7 7 6 5 3 2 1 1 2 2 3 4 5 6 6 6
1 2 2 3 3 4 6 7 6 5 11 12 8 6 7 6 6 6 3 4 7 8 9 10 14 18 18 19 19 18 18 18 19 21 24 25 23 23 23 23 21 20 20 19 19 18 18 18 17 17 16 15 13 13 13 13 12 11 10 9 8 8 9 9 11 11 11 11 11 11 10 10 10 10 10 9 8 8 8 7 7 7 6 5 4 3 2 1 1 2 3 4 5 6 7 8 8
2 3 3 3 3 4 3 5 7 7 9 9 9 7 6 5 6 4 3 2 4 9 14 12 14 21 22 22 21 18 17 17 18 21 24 24 22 22 21 21 19 18 19 19 20 19 18 17 17 17 16 15 12 12 12 12 13 13 12 11 10 10 9 10 11 12 12 11 12 12 11 11 11 11 10 10 9 8 8 8 7 6 5 5 4 2 2 1 1 2 3 5 6 7 7 8 9
3 3 5 2 3 3 2 6 6 6 6 7 9 7 3 3 4 3 3 3 3 4 8 13 16 19 20 21 21 19 18 16 17 20 24 24 23 21 20 20 19 18 18 17 18 19 18 17 17 16 16 15 13 11 11 11 13 13 13 12 11 11 11 11 11 12 13 12 13 12 11 11 11 11 10 10 9 8 8 7 6 6 5 4 3 2 2 2 2 3 4 6 7 8 8 9 9
4 5 8 4 3 6 5 6 5 4 5 6 7 4 3 2 0 3 6 7 6 3 1 5 13 18 17 18 19 19 18 17 16 18 22 24 23 23 21 20 20 20 18 16 15 16 17 17 18 17 16 15 14 12 12 12 12 13 14 14 14 13 12 13 12 13 13 13 14 12 11 10 10 10 10 9 8 8 7 7 6 5 5 4 4 3 2 3 4 5 5 6 8 8 9 9 8
5 2 9 8 4 9 7 6 5 4 5 5 4 2 2 2 1 2 6 9 8 7 7 3 8 18 19 17 17 16 15 15 14 15 19 21 22 22 22 21 20 19 18 17 16 15 15 16 17 18 16 16 15 14 13 13 13 13 13 14 15 14 14 14 14 13 13 14 14 12 10 10 10 10 9 9 9 8 7 7 6 5 5 5 5 4 4 5 6 6 7 8 8 8 8 9 8
6 2 6 9 6 11 7 5 4 1 3 2 1 0 2 2 3 4 7 9 8 9 8 4 8 18 21 17 15 15 15 15 14 15 17 20 21 22 23 22 21 20 19 18 18 17 15 14 15 15 14 14 15 15 14 13 12 13 13 13 14 14 15 14 14 14 14 15 14 12 10 10 11 10 10 10 9 9 9 8 7 7 7 6 6 6 6 6 7 8 9 9 9 9 8 8 7
10 10 7 6 6 10 8 6 5 3 3 2 2 3 5 4 3 6 9 10 11 12 10 8 10 18 21 17 15 15 16 17 16 16 16 18 20 22 24 24 23 22 20 19 19 19 17 15 14 13 13 12 14 15 14 13 12 13 13 12 13 14 14 14 15 15 15 15 14 12 11 11 11 10 11 11 10 9 9 8 8 8 8 7 7 8 8 8 9 9 11 11 11 11 10 9 9
14 16 9 5 4 6 7 8 6 5 5 5 4 5 7 6 3 5 7 4 8 14 13 12 14 18 20 18 16 15 15 16 16 17 18 20 21 22 24 26 26 23 21 20 19 20 20 18 15 14 13 13 14 14 13 13 12 12 13 12 13 14 13 14 15 15 15 15 14 12 12 12 11 11 12 12 11 10 9 9 10 9 9 8 8 10 10 10 11 11 13 12 12 12 11 10 11
16 18 8 3 2 2 5 8 7 6 4 8 8 5 8 7 4 9 12 5 6 14 16 16 17 18 20 19 18 17 15 15 17 19 21 21 21 21 23 27 27 25 23 21 19 20 21 21 18 16 15 15 15 15 14 13 12 12 13 13 14 14 14 14 15 14 15 15 14 14 13 13 12 12 12 12 12 11 10 10 11 11 10 10 11 12 13 13 13 13 13 13 13 13 11 10 10
14 14 6 2 1 4 8 9 9 8 3 7 7 3 6 6 8 15 18 12 8 14 18 18 19 19 20 20 20 20 17 16 19 20 20 19 19 19 21 23 25 26 25 22 20 20 21 22 20 19 18 17 17 16 15 14 13 13 14 14 14 15 16 16 15 15 14 15 15 14 13 13 13 13 13 12 12 11 11 12 13 13 12 12 13 15 15 14 14 13 13 13 13 13 12 9 9
10 7 4 2 1 4 12 13 12 10 6 9 7 2 5 6 14 21 22 21 17 17 20 20 20 21 21 21 21 21 20 20 21 19 17 18 19 19 19 20 23 25 24 24 23 22 21 22 22 22 21 20 19 17 17 16 14 14 14 14 15 16 17 17 16 15 16 16 16 15 14 14 14 14 14 13 13 13 13 14 14 14 13 14 15 16 16 15 14 14 13 14 13 13 11 8 8
6 3 2 3 3 4 8 12 13 8 8 14 11 4 6 3 12 18 18 24 25 22 24 22 22 22 23 23 23 23 22 22 21 18 17 18 20 20 19 19 21 24 25 26 24 23 21 21 23 24 24 22 21 20 19 18 17 16 15 15 16 17 17 17 17 17 17 17 17 16 15 15 15 15 15 15 15 15 15 16 16 16 15 16 17 17 17 16 15 15 15 15 14 13 11 8 8
2 3 2 2 5 4 5 7 15 10 6 14 12 3 7 5 13 17 15 20 27 26 25 24 24 23 24 25 25 25 23 23 22 20 19 19 21 21 20 20 20 22 25 26 24 24 23 23 23 24 25 24 23 22 21 20 19 18 17 17 17 18 18 19 19 18 18 18 18 18 17 17 17 17 17 17 17 17 17 18 18 17 17 17 18 18 18 17 16 15 15 16 14 12 11 9 7
2 3 3 4 5 2 4 2 12 14 5 7 8 4 4 4 9 13 12 18 25 26 23 24 25 23 25 27 27 26 25 25 25 24 23 22 22 22 21 21 20 20 22 24 24 24 24 24 24 24 25 25 24 23 22 22 21 21 19 19 19 20 20 20 20 20 20 20 21 20 19 19 19 19 20 20 20 20 20 20 19 19 19 19 20 20 19 18 17 16 16 15 13 11 10 8 7
3 3 2 4 4 3 2 2 6 11 6 6 8 5 6 6 4 6 12 18 22 23 23 24 25 24 25 27 28 28 27 28 28 26 25 24 23 23 23 21 21 20 21 23 24 24 24 24 24 24 25 25 24 24 24 23 23 23 22 21 22 22 22 21 21 22 23 23 23 23 22 22 22 22 22 23 23 23 22 21 21 21 20 20 21 20 19 18 18 18 17 15 13 12 11 9 8
7 7 3 2 3 5 5 2 5 9 5 6 7 7 11 9 7 7 10 14 17 20 22 23 25 25 25 26 29 29 29 29 27 25 24 24 24 24 24 23 23 22 21 22 23 24 25 25 25 25 25 26 25 25 25 26 25 25 25 25 25 25 25 24 24 26 26 26 26 26 26 26 25 25 25 25 25 25 24 23 23 22 22 22 22 22 20 20 19 19 18 15 13 14 13 11 10
10 9 6 4 4 5 7 4 6 11 6 5 8 9 10 9 8 12 15 14 14 18 20 21 23 25 26 28 29 30 30 29 25 23 23 24 24 24 24 24 24 24 23 22 23 25 26 26 26 26 26 27 26 26 27 29 29 29 29 29 29 29 29 28 27 28 29 29 29 28 29 29 28 28 27 27 27 27 26 25 24 23 23 23 23 23 22 21 21 20 18 15 14 15 14 12 11
9 7 5 6 5 4 7 5 5 10 8 6 10 9 9 9 8 11 19 18 16 19 20 22 23 23 26 29 31 30 30 28 24 23 24 23 23 23 24 24 25 25 25 25 25 26 26 27 27 27 27 27 27 28 29 31 32 32 32 32 32 31 30 30 30 30 31 31 31 31 31 31 30 30 29 28 28 28 27 26 25 25 25 25 26 25 23 22 22 20 18 17 16 16 15 14 12
6 6 5 6 5 3 3 3 4 7 4 5 7 7 10 10 8 11 16 14 15 23 22 22 24 23 24 28 32 32 28 26 24 24 25 24 24 24 24 25 26 27 27 27 26 26 27 27 27 27 26 27 27 28 29 31 32 32 32 32 31 30 30 30 30 30 31 31 31 32 32 32 32 32 31 30 29 28 28 28 28 27 27 27 27 26 25 25 23 22 21 20 18 18 17 15 14
4 4 4 4 4 1 3 2 3 5 2 3 3 5 9 9 9 11 15 15 19 27 28 27 27 26 26 27 30 32 29 27 25 24 25 25 25 24 25 26 26 27 27 27 26 26 27 28 27 26 26 27 26 26 27 28 29 30 32 32 32 31 31 31 30 30 30 31 32 32 33 33 33 33 32 31 30 30 29 29 29 29 28 28 28 28 27 27 26 24 23 22 20 19 18 18 18
3 4 4 4 4 4 1 2 2 2 2 2 1 4 7 7 7 10 18 24 24 27 29 31 32 32 32 30 30 31 31 29 27 25 25 26 26 26 26 27 26 27 28 28 27 27 28 28 27 25 25 25 25 24 24 25 26 28 30 32 33 33 33 33 33 32 32 33 33 33 34 34 34 34 33 32 32 31 31 31 30 30 29 29 29 30 30 30 29 27 26 24 22 22 21 20 20
4 5 5 4 4 4 3 3 2 1 3 1 2 5 6 5 7 9 15 20 21 23 23 25 32 35 35 34 33 33 33 32 30 28 27 27 28 27 26 25 26 28 28 28 28 28 28 27 25 24 24 24 24 24 23 24 26 27 28 30 33 35 36 36 37 36 36 35 35 34 34 34 34 34 34 34 33 33 33 33 32 32 31 31 32 32 32 32 31 29 28 26 25 24 22 21 21
4 5 7 6 5 4 5 7 5 4 4 3 1 2 5 4 5 8 7 7 12 17 17 21 29 33 35 35 36 37 35 34 32 30 29 29 29 28 26 25 26 27 27 27 27 27 26 25 25 25 25 25 25 25 25 26 27 27 28 30 31 33 35 37 37 35 35 35 34 34 33 34 34 35 35 35 35 34 35 35 35 34 34 34 34 34 34 33 33 31 30 28 27 26 24 23 23
3 5 7 8 6 7 8 7 5 2 3 3 2 3 5 6 5 8 7 5 9 11 13 22 28 29 32 35 37 38 38 36 35 33 31 31 30 29 28 27 26 26 25 26 27 27 27 26 26 26 26 26 26 27 27 28 29 29 30 30 31 32 33 34 33 32 33 34 34 34 33 33 34 35 36 36 37 36 36 36 37 36 36 35 35 35 35 35 34 33 31 30 29 28 26 27 26
3 5 8 9 6 7 8 7 4 3 2 3 3 2 3 6 6 9 8 8 10 9 10 17 25 29 33 35 37 39 39 38 37 36 34 33 32 31 29 28 26 25 23 24 26 27 27 27 26 27 27 27 27 28 29 29 30 30 30 31 31 32 33 32 31 31 32 33 33 33 33 32 33 34 35 36 37 37 37 37 38 38 38 37 36 36 37 36 35 34 33 32 31 30 29 29 28
4 4 6 8 6 6 7 6 3 1 2 3 4 2 1 6 6 6 5 7 10 11 11 13 22 30 34 37 39 39 39 38 37 38 37 35 34 32 30 28 26 24 23 23 24 25 26 26 26 27 27 27 27 28 29 30 30 31 31 32 32 33 33 32 32 31 32 32 33 32 32 31 31 32 33 34 35 35 36 37 37 38 38 38 37 37 37 36 36 35 34 34 33 33 32 31 30
3 4 6 5 4 5 5 5 4 2 0 4 4 2 1 6 6 3 3 5 9 10 9 12 21 30 34 37 39 38 36 37 37 37 37 37 36 34 32 30 28 26 24 23 23 24 26 27 28 28 27 27 28 29 29 30 31 32 33 33 33 33 33 34 33 33 33 33 33 33 33 32 31 31 32 32 33 33 34 35 36 37 37 37 37 37 37 37 37 37 36 35 35 34 33 32 32
7 6 8 7 5 5 4 3 4 2 2 4 7 6 3 4 5 5 5 5 7 8 7 9 16 24 30 33 36 37 37 37 37 37 37 37 36 35 34 33 31 28 26 25 25 25 26 27 28 28 28 28 29 29 30 31 32 33 34 34 34 34 34 34 34 35 34 34 35 34 33 33 32 32 31 31 31 31 32 33 33 34 35 36 36 36 37 37 37 37 37 36 35 35 35 34 33
9 5 5 5 3 4 3 3 2 2 4 3 7 9 6 6 6 4 5 6 6 7 7 9 12 18 25 28 30 32 35 37 38 38 39 38 37 37 37 36 34 32 30 28 27 26 27 28 29 29 29 29 29 30 30 31 32 33 34 34 35 35 35 36 36 36 36 36 36 35 34 34 33 33 32 32 32 31 31 32 32 33 33 35 35 35 36 36 37 37 37 36 36 35 35 34 34
6 5 7 5 1 0 1 1 0 3 3 1 5 6 4 8 8 7 12 14 11 10 12 12 14 20 22 22 23 26 29 33 35 35 36 37 37 38 39 38 36 35 33 31 29 29 28 29 29 29 29 28 29 30 31 32 33 34 34 35 35 35 36 37 37 37 37 36 36 35 35 35 35 34 33 33 32 31 32 32 32 32 33 33 34 34 35 35 35 35 36 35 35 36 35 35 35
8 7 8 6 4 3 5 3 1 3 3 2 3 5 3 6 6 10 15 17 16 18 21 21 19 17 13 11 13 17 23 27 30 31 31 32 32 33 36 36 35 35 34 33 32 31 30 30 30 30 29 29 30 30 31 32 33 34 35 35 35 36 36 37 37 37 37 37 36 36 36 36 35 35 34 33 32 32 33 33 32 32 33 33 33 34 35 35 35 35 36 36 36 35 35 35 35
6 5 6 6 5 4 5 4 2 3 1 2 2 3 4 3 3 8 12 15 17 18 22 23 19 13 7 5 5 7 12 17 22 25 26 26 26 26 29 30 30 30 31 32 31 31 30 30 30 29 28 28 29 29 30 31 32 33 34 35 35 36 36 36 36 36 36 36 36 36 36 36 36 35 34 33 33 33 34 33 33 33 32 32 33 33 34 36 36 36 36 37 37 36 36 36 35
2 3 5 4 5 4 2 3 4 4 2 2 3 3 5 4 8 12 12 14 13 11 12 17 16 12 10 10 9 8 8 11 15 18 19 20 20 21 23 24 25 25 25 27 27 27 27 27 27 26 26 26 26 27 27 28 29 30 32 33 34 35 36 36 36 36 36 36 36 36 37 36 36 36 35 34 33 34 34 33 33 32 32 32 32 32 32 33 35 37 38 38 38 37 36 36 35
2 4 6 5 4 6 3 2 1 4 2 3 3 5 5 4 9 12 11 10 8 5 7 11 14 13 13 14 13 13 14 13 15 15 14 14 15 16 18 20 21 21 21 22 22 23 23 23 23 23 23 24 24 24 25 25 26 27 29 31 32 34 34 35 35 35 35 35 35 36 36 36 37 36 34 33 33 33 33 33 32 31 31 31 31 31 29 29 31 34 37 39 40 39 37 37 37
5 6 7 4 3 3 3 2 0 2 4 3 3 5 5 3 5 7 7 7 7 6 7 9 11 13 14 17 18 19 19 17 17 17 16 15 15 16 18 19 20 20 21 22 22 23 23 23 24 24 24 24 23 23 23 23 24 24 26 27 29 31 31 32 32 32 32 33 34 34 34 34 33 33 33 32 32 32 31 31 30 30 31 31 31 30 28 28 31 33 34 36 38 38 38 38 37
5 7 8 6 2 2 4 3 3 5 4 3 2 5 5 5 5 6 9 9 7 6 7 7 8 12 16 19 20 18 15 14 15 16 17 17 16 17 19 20 22 22 23 25 26 27 27 27 27 26 25 24 23 23 22 21 20 20 21 22 24 25 26 26 27 27 28 29 30 30 30 30 30 30 31 31 31 30 30 30 30 30 31 31 30 29 28 27 29 33 35 35 35 34 36 38 39
3 6 7 5 2 3 4 3 2 4 4 2 1 2 5 6 6 8 15 16 10 7 7 7 9 15 19 18 16 14 11 11 11 11 12 14 15 16 17 19 20 21 22 23 25 26 27 28 28 26 25 23 21 19 18 17 17 16 16 16 17 18 19 20 21 23 24 25 25 25 26 27 27 28 29 29 29 29 29 29 29 30 31 31 29 28 28 27 26 29 33 35 35 34 34 37 38
6 8 8 6 3 2 2 2 2 3 4 3 2 3 5 6 6 10 15 15 9 8 8 7 12 18 20 18 16 13 12 12 10 9 9 11 14 15 16 17 18 18 18 18 18 20 21 23 24 23 22 20 17 15 15 14 13 12 11 11 12 13 15 17 18 20 21 22 22 23 24 25 26 27 27 28 29 29 29 29 28 30 30 29 28 27 26 27 29 30 31 32 33 33 34 34 33
8 7 8 8 6 4 3 4 3 3 4 4 4 4 7 6 4 6 11 9 8 9 10 9 16 21 21 19 17 15 14 14 11 10 10 12 14 15 16 16 16 15 14 14 14 14 15 16 17 18 17 16 14 13 12 12 11 10 10 10 11 12 13 15 16 17 18 19 20 21 22 23 23 25 27 27 27 26 26 26 27 29 29 27 28 28 25 24 27 30 32 33 33 35 36 34 32
Wind_Direction
340 345 340 337 342 348 21 27 13 317 59 29 287 105 244 205 106 86 51 52 64 55 71 68 59 69 88 109 113 89 61 38 175 135 133 142 145 160 167 169 192 204 174 165 162 160 154 140 138 137 133 127 115 105 98 86 76 84 98 110 118 127 136 140 143 141 142 142 137 115 84 73 66 70 82 91 90 86 89 95 96 94 93 92 89 86 86 87 87 86 86 85 83 81 79 78 76
340 342 340 339 348 355 357 11 41 349 36 47 296 136 138 20 55 86 89 73 95 98 87 71 65 85 107 106 102 76 53 54 108 114 115 133 144 159 172 176 192 191 170 158 159 162 156 144 141 141 135 127 116 107 95 78 76 90 103 113 121 129 130 130 137 135 127 125 126 123 96 78 80 90 97 99 93 93 100 102 99 97 96 94 91 88 88 89 89 88 86 85 83 81 80 79 78
341 337 337 338 346 352 341 12 91 32 60 111 271 314 75 71 79 104 103 93 95 97 96 76 63 80 96 83 62 68 81 84 112 119 119 137 145 155 181 185 183 180 164 153 159 163 156 147 142 142 137 127 117 108 92 76 81 92 100 108 116 120 120 123 129 128 121 119 120 120 103 91 96 103 106 104 103 107 108 106 99 98 100 94 91 90 89 89 89 88 86 84 83 82 81 80 78
345 333 334 339 349 359 11 50 143 123 107 166 327 16 94 105 109 103 98 100 99 94 96 84 61 70 80 85 78 80 106 122 131 132 131 148 152 158 176 173 169 168 157 153 159 161 156 148 142 142 137 130 120 107 95 84 87 90 95 103 112 117 120 124 128 128 125 127 122 116 112 108 106 108 113 114 117 119 113 110 103 99 100 95 92 91 89 89 89 88 86 84 84 84 83 81 79
332 324 326 332 348 4 66 61 72 88 110 182 96 79 122 117 119 99 92 101 99 89 95 87 75 84 78 79 87 92 113 124 138 138 135 150 161 162 167 159 160 160 152 154 160 161 157 151 147 145 139 134 125 112 103 96 92 88 92 98 105 114 119 121 123 122 125 132 126 116 114 116 114 112 114 113 111 111 113 116 109 103 100 97 94 92 91 90 90 89 88 87 86 84 82 80 78
306 314 331 329 332 329 26 49 0 43 278 176 113 140 136 118 119 103 92 99 98 90 92 84 101 103 81 75 79 99 134 133 140 144 142 152 162 168 166 151 156 155 145 154 163 162 158 155 151 148 146 139 128 119 106 101 96 89 91 90 101 115 117 117 116 115 117 120 119 117 112 116 123 119 115 111 109 110 114 117 110 104 101 99 96 95 94 93 92 91 91 89 86 83 80 77 75
306 332 356 346 335 329 101 105 268 193 325 102 119 145 136 124 121 111 101 97 92 96 91 89 112 99 84 111 82 70 145 158 145 150 156 159 164 175 164 152 166 162 145 157 163 163 160 157 152 152 153 142 130 122 109 107 100 94 95 94 109 121 121 118 113 115 117 116 119 122 116 119 125 124 124 122 120 121 118 114 110 106 104 102 99 98 97 96 94 92 90 88 85 81 78 75 72
311 339 1 5 13 359 86 131 221 182 58 76 115 137 135 127 121 119 127 118 118 123 109 100 106 93 77 133 96 68 130 156 153 155 163 163 168 180 164 158 174 161 147 160 162 164 162 156 154 156 156 145 134 125 116 115 109 105 105 107 119 123 123 120 112 111 115 121 126 126 125 124 123 123 129 129 127 126 119 115 113 110 107 105 104 102 99 97 95 92 89 85 82 79 75 72 69
286 329 358 31 26 352 341 341 237 194 132 101 101 131 134 127 122 124 134 122 133 132 125 111 93 112 107 99 103 109 127 150 157 154 160 165 175 180 162 164 176 153 150 161 162 165 162 159 159 161 161 151 142 133 127 125 121 118 117 118 122 124 125 122 116 111 113 125 130 130 132 128 125 126 129 128 126 125 120 117 116 113 110 108 106 103 100 98 95 92 88 84 80 76 72 70 69
251 300 327 58 42 352 318 303 215 194 148 124 98 121 128 132 132 125 125 117 131 127 121 113 98 125 124 103 115 133 135 152 157 153 159 167 176 175 161 169 178 159 160 162 163 167 165 165 165 166 166 157 151 142 138 139 133 128 127 126 123 125 128 127 122 119 118 125 133 136 140 135 129 128 128 129 131 130 125 120 118 115 111 108 104 100 98 96 93 91 87 83 79 74 72 70 69
14 292 256 65 48 340 285 266 184 148 100 93 81 106 117 135 134 120 122 118 127 128 134 125 114 127 121 112 131 144 154 170 168 157 159 165 171 170 166 172 179 174 169 164 165 170 168 171 169 170 170 164 159 152 151 151 147 140 136 133 129 127 130 136 132 130 126 127 136 140 146 144 135 131 133 139 140 138 131 124 121 116 112 108 103 99 96 93 91 89 85 81 77 74 73 71 69
339 333 44 102 180 223 212 186 165 107 58 47 63 108 109 128 127 119 123 126 135 129 139 133 132 134 113 111 141 152 167 179 179 163 158 163 166 169 173 179 179 177 172 168 170 172 174 176 173 173 175 171 164 160 160 157 155 148 142 140 136 133 131 143 143 139 136 135 139 142 150 149 141 138 138 143 141 138 134 128 124 116 113 108 103 100 96 94 89 86 82 78 75 72 71 69 68
295 16 52 147 204 213 199 156 151 84 33 0 118 132 124 132 118 127 131 128 134 122 119 126 143 134 106 121 147 159 166 173 174 162 161 163 167 170 177 182 177 172 173 173 171 175 180 179 177 177 179 176 168 165 164 160 160 154 148 146 142 141 137 145 151 144 142 144 144 147 152 149 143 138 132 131 132 134 131 127 123 115 113 109 103 102 98 94 87 81 76 74 72 69 68 66 66
329 14 70 229 266 275 234 148 134 91 19 298 145 143 132 114 75 112 129 105 104 124 131 137 135 110 116 130 153 167 164 171 171 163 166 168 171 170 176 184 179 172 173 175 174 177 180 181 183 182 181 178 173 170 167 165 163 158 154 155 151 148 143 145 154 151 148 147 148 150 151 149 145 140 131 125 125 129 131 127 123 119 116 112 106 103 97 92 82 74 69 68 68 65 63 61 61
294 340 94 208 334 318 253 156 145 113 162 253 134 139 114 94 80 96 118 107 102 129 136 144 137 104 152 163 180 177 169 175 174 170 171 173 176 171 175 183 183 177 174 179 181 181 180 182 185 182 182 182 180 176 172 168 164 163 160 163 162 154 151 154 159 157 154 150 148 151 152 153 148 143 136 129 128 129 133 130 128 127 121 116 110 104 97 89 78 67 62 63 63 61 59 54 51
297 324 63 324 303 319 298 126 120 110 207 225 145 129 106 91 91 91 99 123 126 128 122 125 139 122 167 190 194 177 174 179 178 179 178 177 177 171 176 182 184 182 180 185 185 185 183 186 188 185 186 187 187 183 179 173 167 170 168 172 172 161 161 160 161 160 158 156 152 153 155 156 152 146 140 136 136 135 136 133 133 130 124 121 115 109 99 87 73 62 57 55 54 50 48 46 40
29 358 67 288 262 16 312 341 139 143 191 211 152 143 121 94 94 105 107 121 123 127 117 103 136 144 159 187 176 171 176 181 182 184 183 182 177 173 179 184 185 183 182 187 189 188 186 191 192 189 192 191 191 190 186 181 174 175 179 183 179 171 168 162 164 164 165 162 157 158 160 161 157 151 146 144 143 142 142 139 137 133 129 127 120 114 102 88 70 58 47 43 45 39 36 35 26
96 99 134 246 223 167 262 281 180 149 149 172 160 155 127 138 135 126 126 124 126 129 127 118 124 136 146 153 157 169 177 183 187 189 186 186 182 176 182 188 187 185 184 187 193 192 189 195 196 196 200 197 196 195 191 188 184 183 185 191 187 179 174 166 167 169 171 170 164 166 168 166 160 154 150 149 149 148 147 146 144 141 140 136 131 124 109 97 71 53 34 25 25 26 25 17 12
156 110 143 234 195 121 49 62 42 114 143 146 140 128 109 142 154 137 148 160 147 133 126 130 122 124 142 157 163 172 179 186 193 194 190 189 188 182 186 193 192 192 190 188 193 194 192 198 200 200 204 205 199 193 195 194 192 192 191 196 196 188 181 172 172 174 177 176 172 176 179 172 162 157 156 156 155 152 151 153 151 149 149 145 144 140 129 111 72 34 15 5 0 5 4 355 0
199 125 149 241 181 83 55 71 57 86 135 132 121 120 103 115 138 141 174 178 174 169 155 144 138 146 156 165 172 177 182 190 196 198 195 193 192 189 190 196 199 200 198 193 194 195 196 200 202 200 205 212 202 189 196 200 199 199 196 200 203 198 192 182 178 179 182 183 181 187 190 178 168 166 165 162 162 160 158 161 160 158 159 158 160 156 159 127 25 356 353 342 349 350 345 349 356
180 147 168 226 157 92 66 96 83 91 117 119 113 112 98 101 126 151 162 136 238 212 193 196 176 169 170 173 180 184 188 192 197 199 197 196 196 195 196 199 204 206 203 200 198 198 200 203 205 202 203 213 212 199 200 204 208 206 200 203 206 205 200 192 187 186 188 191 191 196 199 187 176 177 177 169 172 174 168 173 173 170 171 172 179 178 196 255 312 322 331 330 337 334 333 346 351
182 205 229 267 119 121 140 132 113 103 104 103 103 104 111 116 131 182 183 171 246 204 198 224 211 192 184 183 187 190 195 197 199 201 198 199 200 201 202 202 204 206 211 211 206 204 205 205 209 208 206 213 218 216 213 214 216 212 207 207 209 210 205 199 195 195 195 198 201 204 208 198 181 180 184 177 178 185 181 183 182 182 188 189 202 211 235 271 295 305 317 320 320 323 334 341 341
174 234 244 261 122 141 159 147 131 118 107 100 101 111 140 113 105 229 212 212 226 214 272 246 214 208 197 189 192 195 202 205 205 204 201 202 202 204 207 208 208 208 215 219 214 211 209 208 209 212 213 216 222 226 225 226 225 219 214 210 211 213 211 204 199 201 200 204 209 210 217 209 186 182 189 184 181 190 194 193 191 196 205 212 225 232 252 273 282 292 302 305 309 322 333 327 327
163 226 232 234 174 150 163 156 143 120 107 101 103 121 142 127 205 216 217 221 226 243 276 294 198 201 195 189 196 202 207 210 212 208 204 206 208 209 210 211 214 215 216 217 216 214 212 209 210 214 216 218 224 230 232 232 231 227 222 215 212 213 216 210 202 202 201 206 213 210 219 214 190 187 195 193 186 192 204 204 202 208 217 230 241 246 254 269 280 294 302 302 307 317 318 308 319
187 177 222 231 186 158 169 171 170 149 119 121 106 244 250 254 254 238 243 238 222 228 248 246 187 190 192 194 200 204 208 210 212 211 207 207 208 210 211 211 214 219 220 216 215 217 217 213 213 220 220 219 223 230 234 236 236 233 231 225 220 217 218 215 206 204 201 205 214 208 212 217 201 194 200 205 200 200 209 212 215 218 224 235 249 262 265 275 287 298 299 297 299 299 296 295 308
197 184 204 223 173 162 177 189 196 228 217 228 259 271 271 260 259 251 252 243 223 222 227 214 189 188 192 197 202 204 209 209 208 211 211 208 205 207 210 210 215 221 225 221 217 218 221 220 218 222 223 221 225 230 232 234 236 236 236 231 227 226 221 217 210 207 203 206 215 209 206 215 213 204 205 214 215 215 218 222 229 230 235 243 253 266 272 279 285 287 287 288 291 290 290 295 300
184 183 194 201 177 171 187 201 214 230 225 228 222 247 260 238 215 241 243 212 200 205 202 194 189 192 197 200 204 205 210 212 210 208 208 212 209 205 206 208 215 223 225 225 221 218 223 225 222 223 223 222 225 231 232 231 233 235 238 232 227 229 223 217 215 213 209 208 214 214 211 215 219 217 216 221 223 225 227 232 239 242 247 251 258 264 267 272 276 280 283 285 287 287 291 295 292
178 184 186 190 200 234 215 208 216 217 225 231 222 246 259 240 215 229 229 212 186 188 183 188 192 198 203 205 206 205 209 213 212 209 208 214 212 206 204 207 214 221 224 227 224 219 222 225 224 222 224 224 225 230 231 231 230 229 235 232 226 226 221 217 217 218 215 211 214 216 218 221 224 226 227 230 232 233 234 238 246 249 254 256 262 264 264 268 272 277 280 282 283 284 288 285 279
171 178 168 190 249 279 244 233 225 210 224 223 209 285 268 228 218 232 234 225 207 193 186 190 196 201 205 208 211 210 211 210 211 214 215 218 217 212 209 209 214 219 224 228 229 224 222 224 225 223 224 225 227 230 233 234 230 226 230 229 224 222 220 219 218 219 219 216 216 218 222 228 232 235 236 238 239 241 241 244 250 254 259 262 265 267 269 270 269 271 275 279 277 275 277 271 272
148 152 131 151 86 270 235 233 228 209 224 203 168 263 254 218 227 236 241 227 209 199 197 197 200 203 205 208 214 216 214 212 212 216 218 220 221 219 215 212 214 219 224 227 231 231 226 224 225 226 226 226 227 230 232 235 232 227 225 224 222 222 222 222 220 219 221 221 220 220 223 228 234 238 242 244 244 245 246 248 252 256 259 263 266 270 276 277 275 277 278 277 272 273 276 268 270
132 105 93 150 174 261 238 216 204 194 226 194 159 240 246 242 241 241 250 231 211 202 202 204 204 202 203 207 213 218 219 218 220 221 220 221 221 221 219 215 214 217 222 226 231 234 231 227 226 227 229 228 227 228 230 233 234 231 227 224 222 223 224 224 223 222 223 224 224 223 223 227 232 237 243 247 249 250 251 253 257 261 264 266 271 275 279 282 285 288 282 276 277 282 284 277 274
138 137 206 222 191 259 300 208 185 181 214 183 159 251 253 258 251 250 259 229 209 205 205 205 207 205 202 204 211 216 221 223 226 228 226 225 224 223 221 219 217 217 221 227 231 233 233 230 227 228 231 231 229 229 230 231 233 234 231 228 226 224 225 225 225 224 224 226 228 228 226 227 232 237 243 248 250 252 255 258 262 266 270 272 275 278 280 284 287 287 281 278 280 282 281 277 268
231 168 183 211 194 235 320 279 186 179 164 184 191 238 258 279 251 237 234 211 200 202 205 205 208 210 204 202 208 213 217 220 224 229 229 228 227 227 224 222 222 221 222 227 231 233 234 232 228 227 229 232 232 232 231 230 232 234 232 231 230 228 226 225 226 226 225 226 229 232 231 231 234 238 243 247 250 252 254 258 262 265 268 270 273 276 279 282 284 282 281 282 281 276 273 263 244
210 191 178 217 204 188 220 317 207 178 152 204 224 236 240 272 274 208 196 194 194 198 205 208 209 213 210 205 208 211 214 218 222 227 226 227 229 229 229 226 226 227 224 226 231 234 236 236 232 229 228 230 232 232 233 232 231 233 233 232 233 233 231 228 227 230 230 230 232 234 235 236 236 239 242 247 250 252 253 255 258 260 263 265 268 273 275 277 278 280 283 284 279 271 264 255 242
182 186 190 227 207 195 202 228 202 178 166 204 216 242 242 253 272 244 212 197 200 206 207 211 213 215 213 209 209 212 216 220 224 226 225 227 229 230 231 230 229 229 228 227 229 233 235 237 237 234 231 230 229 230 232 232 231 232 233 232 232 233 233 231 229 231 233 234 235 236 237 238 238 239 241 245 250 252 253 254 255 258 260 263 265 268 271 273 275 279 284 283 275 268 261 254 246
176 174 172 181 195 214 212 219 200 176 173 215 212 231 243 245 255 250 242 231 224 224 220 218 219 217 214 212 213 214 218 224 225 226 227 228 230 232 232 232 231 231 231 230 229 231 234 235 236 235 234 233 231 229 228 230 230 231 231 231 231 232 232 232 232 233 234 236 238 240 240 240 240 240 240 243 248 251 254 255 256 258 260 262 263 266 270 272 275 278 280 277 269 265 261 254 247
162 166 177 190 202 224 212 226 221 171 165 226 222 231 250 247 247 245 246 245 234 232 232 228 224 222 218 214 215 217 221 228 229 229 229 229 230 231 232 233 231 231 232 233 231 231 233 235 236 237 236 235 232 230 228 229 230 232 233 234 235 236 236 235 235 237 238 239 240 242 245 246 246 246 244 244 246 250 254 256 257 258 259 261 264 268 271 271 272 272 270 268 263 260 258 254 247
144 164 181 204 211 233 236 212 192 166 162 248 233 238 255 251 254 251 246 241 230 229 230 230 226 225 224 218 217 218 223 230 231 231 230 228 229 229 230 230 229 230 230 231 232 232 233 235 237 239 239 239 237 235 233 232 234 236 239 243 245 245 245 245 245 246 246 246 246 247 249 251 252 253 253 252 251 252 254 256 258 259 259 261 264 267 268 267 266 264 261 262 260 257 255 252 246
134 151 165 214 206 172 349 7 170 165 175 263 248 244 254 256 257 256 247 237 235 234 232 233 230 224 224 221 218 217 221 227 229 230 228 226 227 227 227 228 228 230 230 231 233 232 233 234 237 239 240 243 244 242 240 239 240 240 242 246 248 250 252 253 254 252 251 252 252 252 253 254 255 256 257 257 256 256 256 257 258 259 259 260 262 264 265 264 262 260 260 260 259 256 252 250 248
155 147 155 224 201 154 239 301 254 189 197 232 320 288 269 258 254 256 247 241 242 241 237 238 236 230 227 223 220 218 219 225 227 227 225 223 224 224 224 225 225 227 228 229 230 231 232 233 236 238 240 243 245 246 245 244 245 245 244 244 246 248 250 253 253 251 249 249 250 251 252 254 255 256 257 257 258 258 258 259 259 259 260 260 261 263 264 264 262 261 261 260 257 253 251 251 252
208 180 172 210 198 167 169 168 162 353 322 315 21 320 287 251 242 249 247 243 244 243 239 238 236 233 231 226 222 222 223 227 229 226 223 221 220 221 222 223 224 225 226 228 229 230 231 233 235 237 239 240 242 245 245 244 244 244 243 242 241 242 244 245 247 249 248 248 249 250 251 253 255 257 259 259 259 260 260 260 260 260 261 261 261 262 264 265 264 262 261 259 257 255 254 254 253
228 206 190 191 172 133 123 130 111 41 329 293 54 299 289 292 258 254 255 249 245 242 236 234 234 230 228 225 221 223 226 228 231 231 228 225 222 221 222 223 225 226 228 229 230 231 232 234 235 236 238 239 241 243 243 243 242 242 242 242 241 241 242 244 248 253 254 255 256 255 253 254 256 258 261 262 262 262 262 262 262 262 262 262 262 262 263 263 262 261 259 256 256 256 256 252 250
222 219 190 181 147 118 130 137 124 109 251 271 91 180 266 314 290 266 263 254 249 240 233 235 234 230 227 227 226 226 226 226 228 230 230 229 227 225 223 224 225 227 230 230 231 232 233 235 235 236 238 240 242 244 244 244 244 244 244 245 246 247 249 251 255 258 260 262 263 262 259 257 258 259 261 263 263 263 263 263 263 263 262 262 262 262 262 262 262 261 258 255 255 255 252 249 249
224 219 179 177 152 135 150 142 138 176 210 316 15 126 261 293 268 261 259 258 262 247 237 238 235 232 231 231 230 229 227 226 225 225 226 228 229 228 227 227 228 230 231 230 230 231 232 234 236 237 239 242 244 245 246 247 248 249 249 250 251 252 254 257 258 258 260 262 263 264 263 261 259 259 261 262 263 264 264 264 264 263 263 262 260 260 261 262 261 259 256 254 254 252 251 251 251
237 218 170 177 164 142 148 128 117 96 81 297 306 84 275 273 262 270 258 251 262 248 237 237 233 232 231 231 232 231 228 225 224 224 224 226 228 230 231 231 233 234 232 231 231 231 231 232 235 237 239 241 244 245 247 249 250 251 252 253 254 256 258 258 257 257 258 259 260 262 263 262 260 258 259 260 262 263 263 263 263 262 263 263 262 261 261 260 258 257 255 253 252 251 252 252 251
194 138 100 99 92 95 111 114 107 69 115 235 242 147 227 270 257 245 232 233 247 245 237 233 232 231 231 231 232 232 230 226 225 226 227 229 232 234 235 237 237 237 235 233 232 230 230 230 232 235 238 241 244 245 247 250 251 251 253 254 255 257 258 258 258 258 258 258 260 261 262 263 263 261 261 261 262 263 263 263 263 262 263 263 262 261 259 257 255 255 254 253 253 254 254 253 252
124 92 82 70 49 61 64 65 89 93 254 226 204 181 173 276 265 219 210 227 230 234 243 244 240 236 234 234 234 234 233 231 229 228 229 231 235 237 238 238 239 239 237 235 233 231 230 230 232 235 240 243 246 246 248 250 251 252 254 255 256 257 257 258 258 258 259 259 260 262 264 265 266 267 267 266 266 266 265 266 266 265 264 261 260 260 258 256 254 254 254 254 254 254 255 255 255
120 89 110 92 26 27 31 16 56 202 245 226 190 178 172 233 261 243 243 264 246 224 234 243 243 241 239 237 237 237 236 236 235 233 233 232 233 235 236 238 239 238 236 234 232 232 231 232 235 238 242 245 246 247 249 250 251 253 255 257 257 258 257 257 258 260 260 260 261 263 264 265 266 267 268 269 270 270 269 269 269 267 265 262 261 260 259 257 255 255 255 255 255 255 256 256 256
135 124 135 125 99 59 202 212 351 219 237 275 178 167 195 240 259 269 267 267 256 237 234 241 244 244 245 243 242 241 238 237 236 236 237 236 236 236 237 239 239 237 236 235 234 233 233 235 237 240 243 246 248 249 251 251 252 255 256 257 258 259 258 257 258 260 260 261 262 262 263 265 266 267 268 270 273 274 273 273 272 271 269 267 266 264 261 258 256 256 256 255 255 254 255 256 256
163 150 153 157 153 179 200 188 268 231 235 282 174 164 237 274 271 248 250 259 262 254 245 248 252 245 242 245 243 243 238 235 235 236 238 239 240 240 239 238 238 237 236 236 235 236 237 239 241 244 246 249 250 251 252 253 254 256 257 258 259 259 260 260 260 261 261 262 262 263 264 265 267 268 270 272 275 276 275 274 274 273 272 271 269 266 263 259 255 254 254 255 256 255 255 256 257
164 144 143 160 164 180 194 180 196 207 224 276 214 179 200 219 250 236 242 261 275 270 248 244 251 241 215 207 213 223 232 233 234 234 235 238 241 240 238 238 237 237 237 237 238 239 241 243 244 247 248 248 249 250 251 253 255 256 257 258 259 259 261 262 263 264 264 264 263 264 265 266 267 268 270 272 274 274 273 273 272 271 270 270 269 268 264 259 256 254 253 253 255 256 255 256 259
203 128 134 187 186 147 140 191 179 148 129 240 226 232 210 213 274 278 270 264 270 275 246 235 241 232 210 209 208 205 214 220 223 226 228 232 235 235 235 236 236 237 236 237 238 238 240 241 242 243 243 244 245 246 249 251 254 255 256 257 258 259 261 262 263 264 264 265 265 266 266 267 267 268 270 271 271 271 271 271 271 269 269 270 271 270 265 259 254 253 254 255 256 256 256 259 260
171 161 170 199 172 121 124 221 146 111 172 233 204 247 287 311 289 285 284 273 272 278 249 233 231 226 220 222 225 230 235 231 224 222 224 226 226 228 229 228 228 228 228 230 232 233 235 236 237 238 237 239 241 243 246 249 251 253 255 256 257 257 259 261 263 264 265 265 266 266 266 267 268 269 270 271 270 271 272 272 272 271 271 272 275 274 271 266 259 254 253 255 257 258 258 258 254
144 183 176 137 83 91 134 191 1 154 223 259 205 229 273 293 270 293 309 283 266 257 245 239 232 226 229 235 240 246 250 250 242 235 233 231 229 230 228 224 222 223 225 228 229 230 232 233 234 235 236 237 239 242 245 248 252 256 257 257 257 258 259 261 263 264 265 265 265 265 266 267 268 269 270 270 270 271 272 272 272 272 273 275 276 276 272 265 262 262 258 255 257 259 257 254 253
148 165 160 139 140 193 164 165 200 197 218 271 244 227 231 217 231 285 291 266 246 237 234 238 232 223 228 238 243 244 244 243 238 234 232 232 234 234 230 227 227 228 229 230 231 232 233 234 234 235 235 238 241 244 248 254 258 261 261 260 259 259 259 261 263 264 263 264 264 265 266 266 267 266 266 268 269 271 271 271 272 273 273 274 275 276 275 265 253 255 259 258 257 257 256 255 258
104 139 160 170 162 168 173 171 171 183 198 237 277 238 237 231 214 233 253 256 247 220 214 225 221 218 225 231 230 226 220 213 209 211 216 222 228 230 229 230 231 233 235 237 238 238 239 239 240 241 241 243 246 249 253 257 260 260 259 258 256 256 257 258 259 260 261 262 263 264 264 263 263 261 262 263 265 267 269 270 272 272 271 272 271 270 271 271 260 250 251 254 254 254 257 259 261
159 166 180 188 163 108 156 189 149 142 169 195 216 237 255 251 212 213 236 252 250 209 196 215 217 216 223 222 216 213 208 198 197 207 217 222 227 229 230 231 232 234 237 238 238 239 240 242 243 243 243 244 247 248 249 250 252 253 251 250 250 250 252 254 256 258 260 262 263 263 262 261 260 259 259 260 261 264 266 268 269 270 271 271 270 268 264 264 265 261 257 257 256 256 256 255 258
177 181 183 181 172 135 157 213 195 162 186 184 181 242 269 255 215 220 232 243 245 213 191 200 213 215 220 221 218 216 209 204 212 225 233 235 236 234 232 231 230 231 231 231 232 235 236 236 234 232 232 233 235 238 241 243 245 246 245 242 242 244 247 251 255 258 261 264 264 264 264 262 261 260 259 259 260 263 266 268 269 270 274 275 272 273 269 260 262 264 265 265 262 259 254 251 262